This is the latest recevied weather packets stored in our database for station/object KE0QIB. If no packets are shown the sender has not sent any weather packets the latest 10 day(s).
| Time | Temp. | Humidity | Pressure | Rain* | Wind** | Luminosity | Snow |
|---|---|---|---|---|---|---|---|
| 1777652824 | 10° C | 46% | 1004.9 hPa | 0 mm | - | - | - |
| 1777652524 | 9.44° C | 47% | 1004.8 hPa | 0 mm | - | - | - |
| 1777652224 | 9.44° C | 48% | 1004.8 hPa | 0 mm | - | - | - |
| 1777651924 | 9.44° C | 48% | 1004.8 hPa | 0 mm | - | - | - |
| 1777651624 | 8.89° C | 47% | 1004.7 hPa | 0 mm | - | - | - |
| 1777651324 | 8.89° C | 47% | 1004.7 hPa | 0 mm | - | - | - |
| 1777651024 | 8.89° C | 51% | 1004.7 hPa | 0 mm | - | - | - |
| 1777650724 | 8.89° C | 49% | 1004.9 hPa | 0 mm | - | - | - |
| 1777650424 | 8.33° C | 48% | 1004.9 hPa | 0 mm | - | - | - |
| 1777650124 | 8.33° C | 51% | 1004.9 hPa | 0 mm | - | - | - |
| 1777649824 | 8.33° C | 48% | 1004.9 hPa | 0 mm | - | - | - |
| 1777649524 | 8.33° C | 48% | 1004.9 hPa | 0 mm | - | - | - |
| 1777649224 | 8.33° C | 50% | 1004.9 hPa | 0 mm | - | - | - |
| 1777648924 | 7.78° C | 48% | 1004.9 hPa | 0 mm | - | - | - |
| 1777648624 | 8.33° C | 48% | 1004.9 hPa | 0 mm | - | - | - |
| 1777648324 | 7.78° C | 50% | 1004.9 hPa | 0 mm | - | - | - |
| 1777648025 | 7.78° C | 50% | 1005.2 hPa | 0 mm | - | - | - |
| 1777647725 | 7.78° C | 52% | 1005.2 hPa | 0 mm | - | - | - |
| 1777647425 | 7.22° C | 49% | 1005.2 hPa | 0 mm | - | - | - |
| 1777647125 | 7.22° C | 51% | 1005 hPa | 0 mm | - | - | - |
| 1777646825 | 7.22° C | 53% | 1005 hPa | 0 mm | - | - | - |
| 1777646525 | 7.22° C | 52% | 1005 hPa | 0 mm | - | - | - |
| 1777646225 | 6.67° C | 51% | 1005.2 hPa | 0 mm | - | - | - |
| 1777645925 | 6.67° C | 51% | 1005.2 hPa | 0 mm | - | - | - |
| 1777645625 | 6.67° C | 53% | 1005.2 hPa | 0 mm | - | - | - |
* Rain latest hour (hover to see other rain measurements)
** Current wind speed in m/s (hover to see current wind gust speed)